West Palm Beach, FL

11:12 AM EDT on October 14, 2019 (GMT -0400)
Palm Beach International

Weather History for KPBI - May, 2019

Change the Weather History Date:

Wednesday, May 29, 2019

  Actual Average Record
Temperature  
Mean Temperature 82 °F 80 °F  
Max Temperature 88 °F 87 °F 96 °F (1971)
Min Temperature 76 °F 73 °F 59 °F (1901)
Degree Days  
Heating Degree Days 0 0  
Month to date heating degree days 0 0  
Since 1 July heating degree days 144 233  
Cooling Degree Days 17 15  
Month to date cooling degree days 437 382  
Year to date cooling degree days 1362 1077  
Growing Degree Days 32 (Base 50)    
Moisture  
Dew Point 68 °F    
Average Humidity 61    
Maximum Humidity 74    
Minimum Humidity 48    
Precipitation  
Precipitation 0.00 in 0.22 in 3.58 in (1890)
Month to date precipitation 5.29 4.06  
Year to date precipitation 21.01 18.26  
Snow  
Snow 0.00 in - - ()
Month to date snowfall 0.0  
Since 1 July snowfall 0.0  
Snow Depth 0.00 in    
Sea Level Pressure  
Sea Level Pressure 29.98 in    
Wind  
Wind Speed 11 mph (SE)    
Max Wind Speed 17 mph    
Max Gust Speed 24 mph    
Visibility 10 miles    
Events      
T = Trace of Precipitation, MM = Missing Value Source: NWS Daily Summary

Daily Weather History Graph

Daily Weather History Graph

Search for Another Location

Airport or City:

Astronomy

May. 29, 2019 Rise Set
Actual Time 6:27 AM EDT 8:08 PM EDT
Civil Twilight 6:01 AM EDT 8:33 PM EDT
Nautical Twilight 5:31 AM EDT 9:04 PM EDT
Astronomical Twilight 4:58 AM EDT 9:37 PM EDT
Moon 3:30 AM EDT (5/29) 3:47 PM EDT (5/29)
Length of Visible Light 14h 31m
Length of Day
13h 40m
Waning Crescent, 23% of the Moon is Illuminated
May 29
Waning Crescent
Jun 3
New
Jun 10
First Quarter
Jun 17
Full
Jun 25
Last Quarter

Hourly Weather History & Observations

Time (EDT) Temp. Heat Index Dew Point Humidity Pressure Visibility Wind Dir Wind Speed Gust Speed Precip Events Conditions
12:53 AM 79.0 °F - 66.9 °F 66% 29.99 in 10.0 mi SE 10.4 mph - N/A   Partly Cloudy
1:53 AM 78.1 °F - 66.0 °F 66% 29.97 in 10.0 mi SE 10.4 mph - N/A   Partly Cloudy
2:53 AM 78.1 °F - 66.9 °F 68% 29.96 in 10.0 mi ESE 10.4 mph - N/A   Scattered Clouds
3:53 AM 78.1 °F - 66.0 °F 66% 29.95 in 10.0 mi SE 8.1 mph - N/A   Partly Cloudy
4:53 AM 77.0 °F - 66.9 °F 71% 29.95 in 10.0 mi SE 9.2 mph - N/A   Partly Cloudy
5:53 AM 77.0 °F - 66.9 °F 71% 29.97 in 10.0 mi SE 8.1 mph - N/A   Scattered Clouds
6:53 AM 78.1 °F - 66.9 °F 68% 29.99 in 10.0 mi SE 8.1 mph - N/A   Scattered Clouds
7:53 AM 80.1 °F 82.1 °F 66.0 °F 62% 30.01 in 10.0 mi SE 6.9 mph - N/A   Scattered Clouds
8:53 AM 81.0 °F 83.0 °F 66.0 °F 60% 30.02 in 10.0 mi ESE 10.4 mph - N/A   Scattered Clouds
9:53 AM 82.9 °F 85.4 °F 66.9 °F 58% 30.02 in 10.0 mi ESE 10.4 mph - N/A   Scattered Clouds
10:53 AM 82.9 °F 85.4 °F 66.9 °F 58% 30.02 in 10.0 mi SE 8.1 mph - N/A   Scattered Clouds
11:53 AM 86.0 °F 87.6 °F 64.9 °F 49% 30.01 in 10.0 mi SE 9.2 mph - N/A   Clear
12:53 PM 87.1 °F 90.6 °F 68.0 °F 53% 29.99 in 10.0 mi ESE 12.7 mph - N/A   Partly Cloudy
1:53 PM 87.1 °F 91.3 °F 69.1 °F 55% 29.99 in 10.0 mi ESE 13.8 mph 18.4 mph N/A   Scattered Clouds
2:53 PM 87.1 °F 92.0 °F 70.0 °F 57% 29.97 in 10.0 mi ESE 12.7 mph - N/A   Scattered Clouds
3:53 PM 86.0 °F 90.7 °F 70.0 °F 59% 29.95 in 10.0 mi SE 12.7 mph - N/A   Scattered Clouds
4:43 PM 84.9 °F 90.1 °F 71.1 °F 63% 29.94 in 10.0 mi ESE 13.8 mph - N/A   Scattered Clouds
4:53 PM 86.0 °F 90.7 °F 70.0 °F 59% 29.94 in 10.0 mi ESE 15.0 mph - N/A   Scattered Clouds
5:53 PM 84.0 °F 89.0 °F 71.1 °F 65% 29.94 in 10.0 mi SE 13.8 mph - N/A   Scattered Clouds
6:53 PM 82.9 °F 87.5 °F 71.1 °F 67% 29.94 in 10.0 mi SE 15.0 mph - N/A   Scattered Clouds
7:53 PM 82.0 °F 86.3 °F 71.1 °F 69% 29.96 in 10.0 mi SE 13.8 mph - N/A   Scattered Clouds
8:53 PM 81.0 °F 84.9 °F 71.1 °F 72% 29.96 in 10.0 mi SE 13.8 mph - N/A   Scattered Clouds
9:53 PM 80.1 °F 83.6 °F 71.1 °F 74% 29.98 in 10.0 mi SE 12.7 mph - N/A   Partly Cloudy
10:53 PM 80.1 °F 83.6 °F 71.1 °F 74% 30.00 in 10.0 mi ESE 10.4 mph - N/A   Partly Cloudy
11:53 PM 80.1 °F 83.6 °F 71.1 °F 74% 30.00 in 10.0 mi ESE 9.2 mph - N/A   Partly Cloudy